TimePDT,TemperatureF,Dew PointF,Humidity,Sea Level PressureIn,VisibilityMPH,Wind Direction,Wind SpeedMPH,Gust SpeedMPH,PrecipitationIn,Events,Conditions,WindDirDegrees,DateUTC
12:53 AM,61.0,45.0,56,29.92,10.0,SW,13.8,-,N/A,,Overcast,230,2013-06-20 07:53:00
1:53 AM,57.9,46.9,67,29.92,10.0,SW,11.5,-,0.00,Rain,Light Rain,220,2013-06-20 08:53:00
2:53 AM,57.9,45.0,62,29.91,10.0,SW,16.1,-,0.00,,Overcast,230,2013-06-20 09:53:00
3:53 AM,57.0,45.0,64,29.91,10.0,SW,18.4,24.2,N/A,,Overcast,230,2013-06-20 10:53:00
4:53 AM,57.0,44.1,62,29.91,10.0,SW,16.1,-,N/A,,Overcast,230,2013-06-20 11:53:00
5:53 AM,55.9,45.0,67,29.92,10.0,SW,18.4,27.6,N/A,,Mostly Cloudy,230,2013-06-20 12:53:00
6:53 AM,57.0,46.0,67,29.92,10.0,SW,18.4,24.2,N/A,,Overcast,220,2013-06-20 13:53:00
7:53 AM,59.0,45.0,60,29.92,10.0,SW,19.6,27.6,N/A,,Mostly Cloudy,230,2013-06-20 14:53:00
8:53 AM,62.1,45.0,53,29.93,10.0,SW,21.9,26.5,N/A,,Scattered Clouds,230,2013-06-20 15:53:00
9:53 AM,64.0,45.0,50,29.93,10.0,SW,13.8,-,N/A,,Clear,230,2013-06-20 16:53:00
10:53 AM,66.0,43.0,43,29.92,10.0,WSW,13.8,-,N/A,,Clear,250,2013-06-20 17:53:00
11:53 AM,68.0,42.1,39,29.92,10.0,SW,17.3,24.2,N/A,,Partly Cloudy,220,2013-06-20 18:53:00
12:53 PM,68.0,43.0,40,29.92,10.0,SW,15.0,-,0.00,,Overcast,230,2013-06-20 19:53:00
1:53 PM,66.9,42.1,40,29.93,10.0,SW,11.5,21.9,N/A,,Overcast,230,2013-06-20 20:53:00
2:53 PM,70.0,39.9,33,29.93,10.0,SSW,15.0,21.9,N/A,,Overcast,210,2013-06-20 21:53:00
3:53 PM,71.1,41.0,34,29.93,10.0,SW,18.4,23.0,N/A,,Mostly Cloudy,220,2013-06-20 22:53:00
4:53 PM,70.0,42.1,36,29.94,10.0,WSW,16.1,25.3,0.00,Rain,Light Rain,240,2013-06-20 23:53:00
5:03 PM,64.4,50.0,59,29.95,10.0,North,13.8,21.9,0.00,Rain,Light Rain,10,2013-06-21 00:03:00
5:53 PM,62.1,50.0,65,29.98,10.0,NNE,10.4,-,0.00,Rain,Light Rain,30,2013-06-21 00:53:00
6:53 PM,60.1,52.0,75,30.01,10.0,NNW,10.4,-,0.00,Rain,Light Rain,340,2013-06-21 01:53:00
7:53 PM,57.0,53.1,87,30.03,10.0,North,3.5,-,0.01,Rain,Light Rain,10,2013-06-21 02:53:00
8:53 PM,57.0,53.1,87,30.05,10.0,Calm,Calm,-,0.00,,Overcast,0,2013-06-21 03:53:00
9:53 PM,57.0,53.1,87,30.07,10.0,SSE,5.8,-,0.01,Rain,Light Rain,150,2013-06-21 04:53:00
10:53 PM,57.0,54.0,89,30.08,10.0,SSE,5.8,-,0.03,Rain,Light Rain,160,2013-06-21 05:53:00
11:53 PM,55.9,54.0,93,30.08,10.0,SSE,5.8,-,0.02,Rain,Light Rain,160,2013-06-21 06:53:00